RH
98 96 91 88 85 82 79 76 78 80 81 79 78 77 77 78 77 75 75 77 80 81 82 82 81 80 78 76 76 77 77 76 75 74 73 72 71 69 67 66 64 63 62 61 60 58 57 55 53 52 51 50
91 91 87 83 79 75 72 68 66 66 67 69 71 75 79 84 85 83 81 80 81 80 79 80 80 79 77 76 75 74 73 72 70 68 66 65 62 60 58 56 54 52 51 50 49 48 47 46 45 44 43 42
80 81 79 78 75 72 69 66 65 65 66 69 75 81 86 87 86 84 82 81 80 79 77 77 76 74 72 69 67 65 62 59 56 53 51 49 46 45 43 41 40 39 38 36 35 35 34 33 31 30 29 28
84 85 84 83 81 80 78 76 77 79 82 84 86 88 88 85 82 80 78 76 74 72 70 69 66 63 60 56 53 50 46 43 41 39 38 36 35 34 33 32 31 31 30 29 28 28 27 27 26 25 24 22
97 97 96 93 91 90 89 88 88 88 89 89 87 85 82 78 75 72 68 65 62 59 57 54 50 47 44 42 40 38 37 36 35 34 33 33 32 32 31 31 31 30 30 30 29 29 29 28 28 27 26 26
97 96 93 90 89 88 86 84 85 86 84 81 78 75 71 66 62 58 55 52 48 46 45 43 41 40 38 38 38 37 37 37 36 35 35 34 34 34 33 33 33 33 32 32 32 31 31 31 31 30 30 30
91 89 86 86 86 85 82 78 78 77 76 74 71 67 62 57 54 52 50 48 47 46 45 45 44 43 42 41 40 39 38 37 37 36 36 35 35 34 34 34 34 34 33 33 32 32 32 31 31 30 30 29
87 84 82 83 81 79 76 74 72 70 68 66 64 62 59 57 55 54 54 53 52 51 50 48 46 45 42 41 40 39 38 37 37 36 36 35 34 34 33 33 32 31 30 30 28 27 27 26 25 24 23 23
85 82 80 78 75 73 73 71 70 68 67 66 66 65 63 62 60 59 57 55 53 51 49 47 45 43 41 40 39 39 38 37 36 35 34 33 31 30 28 26 25 23 21 20 18 17 15 14 13 12 12 11
83 81 80 78 77 76 76 75 73 71 70 68 66 63 60 58 56 54 53 51 49 47 46 45 43 42 41 40 38 37 35 34 32 30 28 25 23 20 18 16 13 11 10 9 8 7 6 5 5 4 4 4
81 81 80 79 78 77 76 74 71 69 66 64 62 59 56 54 53 52 51 50 49 47 45 43 42 40 37 35 32 29 26 23 20 18 16 13 11 9 8 6 5 4 3 3 3 2 2 2 2 2 2 2
80 80 80 79 79 77 75 73 69 67 65 63 63 61 59 58 56 54 51 48 45 41 38 34 31 27 24 21 18 16 12 10 8 7 5 4 4 3 2 2 2 2 2 2 2 2 2 1 2 2 1 2
81 80 79 80 79 78 76 74 72 71 69 67 65 62 59 55 50 43 38 33 28 24 20 17 14 11 9 7 6 5 4 3 3 2 2 2 2 2 2 2 1 2 1 2 2 1 2 2 2 2 2 2
78 77 78 78 78 77 75 73 70 67 63 58 53 48 43 37 30 22 17 13 10 8 6 5 4 3 3 2 2 2 2 2 2 2 2 2 2 2 2 2 2 2 2 2 2 2 2 2 2 2 2 2
78 78 78 76 73 69 65 60 54 47 42 35 28 24 20 15 10 7 5 4 3 2 2 2 2 2 2 2 2 2 2 2 2 2 2 2 2 2 2 2 2 2 2 2 2 2 2 2 2 2 2 2
73 70 66 61 56 50 45 39 32 26 21 16 11 8 6 4 3 2 2 2 2 2 2 2 2 2 2 2 2 2 2 2 2 2 2 2 2 2 2 2 3 2 3 3 3 3 3 3 3 3 3 3
47 42 37 32 28 24 21 18 14 11 8 6 5 4 3 3 2 2 2 2 2 2 2 2 2 2 2 2 2 3 3 3 3 3 3 3 3 3 3 3 3 3 3 3 3 3 3 3 3 3 3 3
19 16 13 11 10 8 7 6 5 4 3 3 3 3 3 3 3 3 3 3 3 3 3 3 3 3 3 3 3 3 3 4 4 4 4 4 4 4 4 4 4 4 4 4 4 4 4 4 4 4 4 4
7 6 6 5 4 4 3 3 3 3 3 3 3 3 3 3 4 4 4 4 4 4 4 4 4 4 4 4 5 5 5 5 5 5 5 5 5 5 5 5 5 5 5 5 5 4 4 4 4 4 4 4
4 4 4 3 3 3 3 3 4 4 4 4 4 4 4 4 4 4 5 5 5 5 5 5 5 6 6 6 7 7 7 8 8 8 8 8 8 8 8 8 8 7 7 7 6 6 6 6 5 5 5 5
5 4 4 4 4 4 4 5 5 5 5 5 6 6 6 6 6 6 6 7 7 7 7 8 8 8 9 9 9 10 11 11 11 11 10 10 10 10 10 9 9 9 8 8 8 7 7 7 6 6 6 6
5 5 6 5 6 6 6 7 7 7 7 7 7 8 8 8 9 9 10 10 11 11 11 12 12 12 11 11 11 11 12 12 12 12 11 11 12 12 12 12 12 11 11 11 10 10 9 9 8 8 7 7
8 8 8 8 8 8 9 10 10 10 10 10 10 11 11 12 13 14 14 14 14 14 14 14 13 12 11 12 13 14 16 17 17 16 16 17 17 17 17 17 17 16 16 16 15 15 14 13 13 12 11 10
11 11 11 12 12 12 13 13 13 13 13 13 14 15 15 15 15 16 16 16 16 17 17 17 17 16 16 18 20 21 22 22 21 21 21 21 21 20 20 20 20 19 20 19 19 18 18 18 18 17 17 16
14 14 15 15 15 16 16 16 15 15 16 16 16 17 17 18 19 20 22 22 22 23 23 23 23 22 23 24 24 24 25 24 23 23 23 22 21 21 21 20 20 20 20 20 19 18 19 19 18 18 17 17
14 16 16 16 17 17 17 17 17 18 19 20 21 23 25 27 28 29 29 29 27 26 26 25 25 26 25 25 24 24 24 23 22 22 22 21 20 19 19 18 18 18 18 17 16 16 16 15 15 15 15 15
17 19 19 20 21 21 22 22 23 25 26 27 30 32 34 35 35 33 31 28 26 25 26 26 26 26 25 25 24 23 23 23 23 23 23 22 21 21 20 20 19 19 19 18 18 18 17 17 17 16 16 16
24 25 25 25 26 27 27 27 28 29 30 32 34 35 36 35 33 30 28 28 27 28 28 29 29 29 29 29 29 28 28 29 29 28 28 28 28 27 26 26 25 25 24 25 25 24 23 22 22 22 22 21
29 29 29 29 29 29 29 30 31 31 33 36 36 35 36 35 33 32 32 33 33 33 33 32 32 32 32 32 32 32 32 32 32 32 33 34 33 31 31 31 30 29 30 30 30 29 28 28 28 28 27 27
32 31 31 30 30 29 30 30 31 33 37 39 37 37 38 36 35 35 35 36 35 35 34 33 34 33 33 34 34 35 34 35 35 36 37 36 36 35 35 35 34 34 35 34 33 33 33 32 31 30 30 30
33 32 31 30 30 30 30 31 32 36 38 37 37 37 37 37 38 38 37 38 38 38 38 39 39 39 39 39 40 40 41 42 43 44 43 43 43 43 43 42 41 42 42 40 40 41 40 39 37 36 34 34
Wind_Speed
36 38 38 38 37 37 36 36 37 38 38 38 38 38 37 37 37 38 38 39 39 40 40 40 41 41 42 42 41 41 41 41 41 41 41 41 42 42 43 43 43 43 44 44 44 44 44 44 45 45 45 45
39 40 40 39 38 37 37 37 37 38 39 39 39 39 39 39 39 39 40 40 41 42 42 42 43 43 42 42 42 42 42 42 42 42 43 43 43 44 44 45 45 45 45 46 46 46 46 46 46 46 46 47
40 40 40 40 39 39 39 39 38 39 39 40 40 40 40 41 41 41 41 41 41 42 42 43 43 43 43 43 43 43 43 43 43 44 44 44 45 45 45 46 46 46 46 46 46 46 47 47 47 47 47 47
37 38 39 39 40 40 40 40 40 40 40 41 41 42 42 43 43 42 42 42 42 42 42 43 43 43 43 43 43 44 44 44 45 45 45 45 46 46 46 46 47 47 47 47 47 48 48 48 48 48 48 48
37 38 39 40 41 42 42 42 43 42 43 43 43 43 43 44 43 43 43 43 43 43 43 44 44 44 44 44 45 45 45 46 46 46 47 47 47 47 48 48 48 49 49 49 49 49 50 50 50 50 50 50
41 41 42 43 43 43 44 44 45 45 45 44 44 44 44 44 43 43 44 44 44 45 45 45 45 46 46 46 46 47 47 48 48 48 49 49 49 49 50 50 50 50 50 51 51 51 51 52 52 52 52 52
44 45 45 45 45 45 45 46 46 46 45 45 44 44 44 44 44 45 45 46 46 47 47 47 48 48 48 48 49 49 49 49 50 50 50 51 51 51 51 51 51 52 52 52 52 53 53 53 53 53 53 54
46 47 47 47 47 47 47 47 46 46 45 45 45 45 45 45 46 47 47 48 48 48 49 49 50 50 50 50 51 51 51 51 52 52 52 52 52 52 53 53 53 53 53 53 53 54 54 54 54 54 55 55
47 48 47 47 48 48 48 47 47 47 46 46 46 46 47 47 48 48 49 49 50 50 50 50 51 51 52 52 52 52 53 53 53 53 54 54 54 54 54 54 54 54 54 54 54 54 55 55 55 55 55 56
47 47 47 48 48 48 47 47 48 48 48 48 48 48 48 48 49 49 50 50 51 51 51 52 52 52 53 53 53 54 54 54 55 55 55 55 55 55 55 55 55 55 55 55 55 55 55 55 55 55 55 56
47 47 48 48 48 47 47 48 49 49 49 48 48 49 49 49 50 50 51 51 52 52 53 53 53 53 54 54 54 54 55 55 55 55 56 56 56 56 55 55 55 55 54 54 54 54 54 54 54 54 54 55
47 47 47 47 47 47 48 48 49 49 49 49 49 50 50 51 51 51 52 52 52 53 53 54 54 54 54 54 54 55 55 55 55 55 55 55 55 55 55 54 54 54 53 53 53 53 53 53 53 53 53 54
47 47 47 47 47 48 48 49 49 49 49 50 50 51 51 51 51 52 52 52 53 53 53 54 54 54 54 54 54 54 54 54 54 54 54 53 53 53 53 53 53 52 52 52 52 52 52 52 53 53 53 53
47 47 47 48 48 48 48 49 49 49 50 50 50 51 51 51 52 52 52 52 53 53 53 53 52 52 52 52 52 52 51 51 51 51 51 51 51 51 52 52 52 52 53 53 53 53 53 53 53 54 54 54
47 47 48 48 48 48 49 49 49 49 50 50 51 51 51 51 51 51 51 50 50 50 50 50 50 49 49 49 49 49 49 49 49 50 50 50 51 51 52 52 53 53 54 54 54 54 54 55 55 55 55 55
47 48 48 48 48 49 49 49 49 49 50 50 50 50 49 49 49 48 48 47 46 47 47 47 47 47 47 47 48 48 48 48 49 50 50 51 52 52 53 54 54 54 55 55 55 55 56 56 56 56 55 56
47 47 47 47 48 49 48 48 48 48 48 47 47 46 46 45 45 45 45 44 44 45 45 46 47 47 48 48 48 48 49 49 50 51 51 52 52 53 53 54 54 55 55 56 56 56 56 56 56 56 56 56
46 47 47 47 47 47 46 46 45 45 44 44 43 43 43 43 43 44 44 44 45 46 46 47 48 48 49 48 49 49 49 50 50 50 51 52 52 53 53 54 54 55 55 56 56 56 57 57 57 57 57 57
45 46 46 45 45 44 44 43 43 43 43 43 42 43 43 43 44 44 45 46 46 47 47 47 48 49 48 48 48 49 49 50 50 51 51 52 53 53 54 54 55 55 56 57 57 58 58 58 59 59 59 59
43 44 44 43 43 43 43 43 43 43 43 43 43 43 44 44 45 45 45 46 47 47 47 47 48 48 48 48 49 50 50 51 51 52 53 54 54 55 55 56 56 57 58 58 58 59 59 59 60 60 60 60
43 43 44 44 44 43 43 43 43 43 43 43 43 43 44 44 44 44 45 46 46 47 47 48 49 50 50 50 51 51 52 52 52 53 54 54 55 55 56 56 56 57 57 58 58 58 59 59 59 59 59 59
42 43 43 43 43 42 42 42 42 42 43 43 44 44 44 44 44 44 45 46 47 48 48 49 50 51 52 52 51 51 51 52 52 53 54 54 54 55 55 56 56 57 57 57 57 58 58 58 58 59 59 59
42 42 42 42 42 42 42 42 42 43 44 45 45 45 45 45 45 46 47 47 48 48 49 50 51 52 52 51 51 51 51 52 52 53 54 54 54 55 55 56 56 56 57 57 57 58 58 58 58 59 59 59
43 43 42 42 43 42 42 44 45 46 46 46 45 45 45 46 46 47 47 47 48 48 49 50 51 51 51 50 50 50 50 51 52 52 52 53 53 53 53 53 54 54 54 55 55 56 56 56 57 57 57 58
43 42 42 42 42 42 43 44 45 45 45 44 44 44 45 45 45 46 46 47 48 49 50 50 50 50 49 48 48 48 49 49 49 49 50 50 50 50 50 50 50 50 51 51 52 52 52 52 53 53 54 54
42 41 41 41 42 42 43 43 42 42 42 42 42 42 42 43 44 44 46 47 48 49 49 48 47 46 46 46 46 46 46 47 47 47 47 48 48 48 48 48 48 49 50 50 50 50 50 50 51 51 51 52
41 40 40 40 40 41 40 40 40 40 40 40 39 39 40 41 43 44 45 46 46 46 45 44 44 44 44 44 45 45 46 46 46 47 48 48 49 49 49 49 50 50 51 51 51 51 51 51 51 51 52 52
39 39 39 39 38 38 38 37 37 37 37 37 37 38 39 41 42 44 44 44 44 43 44 44 44 45 45 46 47 47 48 48 49 49 50 50 51 51 52 52 52 53 53 53 54 54 54 54 54 53 54 54
38 38 37 37 36 35 35 35 36 36 36 37 38 39 40 42 43 44 44 44 44 45 46 46 47 47 48 48 49 49 50 50 51 51 51 52 53 53 54 54 54 55 55 56 56 56 56 56 56 56 56 57
37 37 36 36 35 35 35 35 36 36 37 39 40 41 43 44 45 45 45 45 46 47 47 48 49 49 50 50 50 51 51 51 52 52 53 53 54 54 55 56 56 56 57 57 58 58 58 58 58 58 58 58
37 37 36 36 35 36 36 36 36 37 39 40 42 43 44 44 45 45 46 46 47 48 48 49 50 51 51 52 52 52 53 53 53 54 54 55 55 55 56 57 57 58 59 59 59 59 59 59 59 59 59 59
Wind_Direction
259 259 259 261 263 263 262 261 260 260 259 259 258 258 257 258 260 262 263 264 264 264 264 264 264 265 265 265 265 265 265 264 264 264 264 265 265 266 266 266 267 267 267 266 266 266 266 266 266 266 266 266
258 259 259 261 262 261 261 261 261 261 260 260 259 258 258 259 262 263 264 264 264 264 265 265 265 265 265 265 264 264 264 264 264 264 265 265 265 266 266 266 266 266 266 266 266 266 265 265 265 265 266 266
258 259 261 261 261 261 261 261 261 261 262 261 261 260 261 263 264 265 265 265 264 264 264 264 264 264 264 264 264 264 264 265 265 265 265 265 265 266 266 266 266 266 266 266 266 266 266 265 265 265 265 265
258 258 260 261 261 262 263 263 263 262 262 261 261 262 263 265 266 266 266 265 264 264 264 264 264 264 265 265 265 265 265 266 266 266 266 266 266 267 267 267 267 267 267 267 267 267 267 266 266 266 265 265
256 256 258 259 261 263 263 264 263 263 262 261 261 262 263 264 265 266 265 265 265 265 265 265 265 266 266 266 266 266 267 267 267 267 267 268 268 268 268 268 268 268 268 268 268 268 268 267 267 267 266 266
259 260 261 261 262 262 263 263 263 263 262 262 262 262 263 263 264 264 265 265 266 266 266 267 267 268 268 268 268 268 268 268 269 269 269 269 269 269 269 268 268 268 268 268 268 268 268 268 268 267 267 267
260 261 262 262 262 262 262 263 263 263 263 262 263 263 263 264 265 265 266 266 267 267 268 268 269 269 269 269 269 269 269 269 269 269 269 269 269 269 269 269 268 268 268 268 268 268 268 268 267 267 267 267
258 260 261 262 262 262 262 262 263 263 263 263 264 264 264 265 265 266 266 266 267 267 267 268 268 269 269 269 269 269 269 269 269 269 269 268 268 268 268 268 268 268 268 268 268 268 268 268 268 267 267 267
258 259 260 260 261 261 262 262 262 263 264 264 264 265 265 265 266 266 266 267 267 267 267 267 267 268 268 268 268 269 269 269 269 269 269 269 269 268 268 268 268 268 268 268 268 268 268 268 268 268 268 267
259 260 260 260 261 261 262 262 263 263 263 264 264 265 265 265 265 266 266 266 267 267 267 267 267 267 267 268 268 268 268 268 269 269 269 269 269 269 269 269 268 268 268 268 268 268 268 268 268 268 268 267
259 260 260 261 261 262 262 262 263 263 263 263 264 264 264 264 264 265 265 265 266 266 266 266 267 267 267 267 267 268 268 268 268 269 269 269 269 269 269 269 269 269 269 269 269 268 268 268 268 267 267 267
259 259 260 260 261 261 261 262 262 263 263 263 263 263 263 263 264 264 264 265 265 265 265 266 266 266 267 267 267 268 268 268 269 269 269 269 270 270 270 270 270 270 270 269 269 268 268 268 267 267 267 267
260 260 260 260 261 261 261 261 262 263 263 263 263 263 263 264 264 264 264 265 265 265 265 265 266 266 266 267 267 267 268 268 269 269 269 269 270 270 270 270 269 269 269 269 268 268 268 267 267 267 266 266
260 260 260 260 260 260 261 261 262 262 262 263 263 263 264 264 264 264 265 265 265 266 266 266 266 266 266 267 267 267 267 268 268 268 268 269 269 269 269 269 268 268 268 268 268 267 267 267 266 266 266 265
260 260 260 260 260 260 260 261 261 261 262 263 263 263 264 264 265 265 265 265 266 266 266 266 266 266 266 266 266 266 267 267 267 267 268 268 268 268 268 268 268 268 268 267 267 267 267 266 266 265 265 265
260 260 260 260 261 261 261 261 262 262 263 263 263 264 264 264 264 264 265 265 265 265 266 266 266 266 266 266 266 267 267 267 267 267 268 268 268 268 268 268 268 267 267 267 267 267 266 266 265 265 264 264
261 261 262 262 262 262 262 262 262 262 262 262 263 263 263 263 264 264 265 265 265 265 265 266 266 266 266 267 267 267 268 268 268 268 268 268 268 268 268 268 267 267 267 267 267 266 266 266 265 265 265 264
263 263 263 263 262 262 262 262 262 261 261 261 262 262 263 263 264 264 265 265 265 265 265 265 266 266 267 267 268 268 268 268 268 268 268 268 268 268 268 268 268 268 267 267 267 267 267 266 266 266 265 265
262 262 262 262 263 263 263 262 262 262 263 263 263 263 264 264 264 265 265 265 265 265 265 266 266 266 267 267 267 268 268 268 268 268 268 268 268 268 268 268 268 268 268 268 268 267 267 267 267 267 266 266
261 262 263 263 263 263 264 264 264 264 264 264 264 264 264 264 264 265 265 265 266 266 266 266 267 267 267 267 267 268 268 268 269 268 268 268 268 268 268 268 268 268 268 268 268 268 268 268 267 267 266 266
263 263 263 264 264 264 265 265 265 264 264 264 264 263 263 264 264 265 266 266 266 266 267 268 268 268 268 268 268 269 269 270 270 269 269 269 269 269 270 269 269 269 269 269 269 268 268 268 268 267 267 266
263 263 264 265 265 266 266 266 265 265 265 265 264 264 265 266 266 266 266 266 267 268 268 269 269 268 268 268 269 270 270 270 270 270 270 270 271 271 271 270 270 270 270 270 270 269 269 269 268 268 267 267
263 264 265 266 266 266 266 266 266 266 265 266 266 268 268 268 268 267 267 267 268 269 269 268 268 268 268 269 270 271 271 271 271 271 271 271 271 271 271 271 271 271 271 271 271 270 270 270 270 269 269 269
265 266 266 266 266 266 266 265 265 266 267 268 269 269 268 268 268 268 268 269 269 268 268 267 267 268 269 271 271 272 272 272 272 272 272 272 272 272 272 272 272 272 272 271 271 271 271 271 271 271 271 271
266 266 266 266 266 265 265 265 266 267 268 268 268 268 268 269 269 268 268 268 267 266 266 267 269 270 272 272 272 272 272 272 272 272 272 272 272 272 272 272 272 272 272 271 271 272 272 272 272 272 272 272
264 264 264 264 265 264 264 265 266 266 267 267 268 268 268 268 268 267 266 266 266 266 268 270 272 273 273 272 272 272 272 272 272 272 273 273 272 272 273 273 273 272 272 272 272 272 272 272 273 273 273 273
263 263 263 262 262 262 263 264 265 265 266 266 267 267 267 266 266 265 265 266 267 269 271 272 273 273 273 272 272 272 272 273 273 273 273 273 273 274 274 273 273 273 273 274 274 274 273 273 273 274 274 274
262 262 261 261 261 262 263 264 265 265 265 265 265 265 265 264 265 265 267 269 271 272 273 273 273 273 273 273 273 273 273 274 274 274 274 275 275 275 274 274 274 275 275 275 275 275 275 274 274 274 275 275
260 260 261 262 262 263 264 265 265 265 265 265 265 265 265 265 266 268 270 271 272 272 273 273 273 273 273 274 274 274 275 275 275 275 276 276 276 276 276 276 276 276 277 276 276 276 276 276 276 275 275 275
260 261 262 263 264 265 265 265 266 266 266 266 266 267 267 267 269 270 271 271 271 272 273 273 273 273 274 274 274 275 275 276 276 277 277 276 277 277 277 278 278 278 278 277 277 277 277 277 277 276 276 276
262 264 265 266 267 267 268 268 269 268 267 267 267 267 268 269 270 270 271 271 272 272 272 273 273 274 274 275 275 275 276 277 277 277 277 277 278 278 279 279 279 279 278 279 279 279 279 278 278 277 277 277